Theta_e
328 332 339 340 350 350 351 351 350 351 353 353 351 351 350 348 346 345 347 347 345 343 343 342 340 340 339 338 338 341 340 343 344 344 339 334 340 343 345 344 347 344 345 345 348 348 347 347 348 349 348 348 348 346 348 348 349 348 345 343 341 340 338 340 342 341 333 330 332 333 332 334 334 335 333 333 331 328 326 324 325 322 321 318 319
326 330 335 336 344 350 351 352 350 349 351 351 350 350 351 350 347 346 346 347 346 344 343 344 343 340 339 338 339 339 340 340 340 343 341 335 338 342 345 345 345 346 346 347 349 348 348 345 346 349 348 347 348 349 348 347 347 344 343 343 342 340 339 339 340 338 331 327 325 326 328 330 332 333 332 330 331 328 327 327 326 322 320 320 320
325 331 333 329 337 351 349 350 350 351 350 349 352 352 352 350 348 348 347 347 347 346 344 342 343 344 342 342 340 341 343 344 342 343 345 337 339 343 346 346 345 344 346 344 348 348 348 346 345 348 349 348 347 346 347 346 346 344 342 339 337 338 341 342 339 338 330 331 331 327 323 322 326 328 332 331 329 328 327 325 324 321 319 318 319
319 320 331 333 333 342 350 349 347 349 349 350 350 350 350 349 349 349 347 348 347 347 346 347 346 347 346 345 345 344 342 344 346 345 345 341 339 343 345 346 345 344 345 345 345 347 348 347 346 347 349 348 345 344 346 346 347 344 343 342 339 335 333 337 341 339 336 332 323 325 324 323 319 323 326 328 330 327 326 325 324 322 319 318 318
319 320 325 333 335 340 348 349 351 348 348 347 349 350 350 349 349 349 349 348 347 348 348 347 345 345 344 345 344 345 345 343 342 342 343 343 340 342 342 346 345 343 345 344 343 346 347 347 347 347 349 347 346 346 347 346 346 343 343 341 339 336 334 336 340 340 338 337 332 325 322 320 320 323 325 326 328 326 325 325 324 322 320 317 316
320 320 326 331 341 346 347 349 350 351 349 349 350 351 350 349 349 349 349 348 348 349 349 347 344 342 342 339 337 339 339 339 338 340 342 341 338 342 342 343 344 344 344 344 343 344 346 347 347 346 349 347 346 346 347 347 346 344 343 341 339 339 338 334 336 340 340 337 336 334 333 327 326 323 323 318 326 328 326 323 323 323 322 318 317
319 321 321 331 342 343 343 345 349 351 350 351 351 351 352 350 349 349 350 349 349 349 349 348 346 344 343 341 340 340 339 341 343 345 344 343 342 342 339 343 343 343 344 344 344 345 345 347 347 347 346 346 346 346 345 347 345 344 343 341 339 338 338 334 335 335 338 338 336 336 335 335 332 325 320 323 317 322 324 323 322 322 323 319 317
317 319 320 324 332 339 338 344 348 350 352 351 351 351 351 350 350 349 350 350 350 349 347 348 346 345 344 342 342 340 341 342 344 345 347 347 343 341 342 342 345 345 345 344 346 345 345 346 347 346 345 347 345 344 346 348 345 345 344 343 341 340 339 336 336 336 334 333 336 335 335 335 334 332 331 326 323 318 318 322 323 324 323 321 319
317 319 320 321 333 337 340 339 343 346 350 350 350 351 351 350 348 349 349 350 350 350 348 347 349 347 345 344 342 341 343 343 344 345 344 346 345 342 342 343 344 346 345 345 345 345 345 345 346 346 346 346 345 345 346 346 346 344 343 343 341 340 340 339 338 335 336 334 334 334 333 331 330 330 330 330 324 322 320 318 318 322 323 321 322
317 318 320 321 324 340 343 342 342 345 351 351 350 350 350 350 348 347 346 348 350 350 349 348 349 348 346 345 344 343 343 343 344 343 344 346 344 344 344 343 343 344 345 344 344 345 345 346 345 344 346 346 344 345 346 346 346 345 344 343 342 340 338 339 338 338 337 337 335 333 328 328 327 327 327 325 326 326 320 318 319 317 315 319 322
314 316 318 321 325 326 344 342 343 347 352 353 350 350 350 348 348 346 346 347 349 349 349 349 349 349 347 346 346 344 344 344 343 343 342 344 343 344 344 344 344 343 345 345 344 345 347 347 345 344 346 346 345 344 345 344 344 346 344 343 341 339 341 341 339 338 337 335 334 332 331 328 326 325 325 325 324 322 321 321 322 320 318 319 320
313 314 315 319 322 325 331 336 340 345 350 351 353 353 351 349 349 347 347 348 348 349 349 349 349 350 350 349 346 346 346 344 344 343 342 343 345 343 344 344 344 344 345 343 345 345 346 345 347 345 345 346 345 345 345 344 345 344 343 342 342 341 341 340 338 337 336 338 335 333 332 332 330 328 327 327 326 325 325 324 322 322 321 321 320
311 313 315 317 318 325 327 332 338 341 347 348 350 353 351 351 350 347 347 348 348 350 350 350 350 350 349 348 348 347 346 344 344 345 345 344 344 344 344 342 342 342 342 342 344 345 344 345 345 345 345 345 346 345 345 344 343 343 341 341 342 340 339 340 340 337 337 335 333 334 334 333 331 331 331 329 330 329 327 322 323 323 319 319 318
311 312 313 315 317 320 334 334 335 340 344 349 350 353 351 350 349 347 346 347 349 350 350 349 349 350 350 349 349 347 346 346 345 344 346 345 345 345 344 343 343 342 343 342 344 344 344 345 346 347 347 346 346 346 345 343 343 341 342 341 340 340 341 339 339 337 337 336 336 334 333 331 332 334 332 331 329 328 325 324 323 322 322 319 318
312 311 313 315 319 322 332 333 337 339 341 347 347 347 352 349 348 347 346 346 347 349 349 349 348 350 350 349 349 349 347 346 346 346 347 346 345 345 345 345 343 343 342 344 345 344 345 345 346 346 346 346 345 346 344 343 342 340 340 340 338 339 339 337 337 337 335 336 336 334 334 333 333 333 332 332 330 329 328 327 323 319 318 318 317
310 311 313 316 320 322 325 335 335 338 341 347 345 347 349 349 349 348 347 348 348 349 349 349 349 348 350 350 350 350 349 348 347 347 347 348 347 345 345 346 345 345 345 344 345 344 344 344 345 345 347 346 345 345 345 342 341 340 339 339 338 338 338 336 336 336 336 336 335 336 334 332 334 333 333 332 331 331 329 328 326 322 317 314 316
312 312 312 316 318 321 322 325 334 338 337 339 345 343 345 350 349 348 348 349 350 350 348 349 349 349 350 351 350 350 349 348 347 348 349 349 349 347 345 345 347 346 345 346 346 345 345 344 344 345 346 346 345 344 343 342 341 341 338 337 336 337 336 334 334 334 335 335 335 334 334 333 333 334 332 331 331 331 330 328 325 322 321 316 312
311 313 314 315 316 318 319 323 325 330 336 337 341 345 344 351 350 350 350 349 350 350 349 350 351 350 350 350 350 350 349 349 349 348 348 347 347 347 346 345 346 345 345 345 346 344 344 343 344 345 346 345 344 343 342 342 341 340 339 338 336 337 335 335 334 333 334 334 334 333 333 332 332 332 331 333 332 330 328 325 324 323 323 318 315
308 311 312 312 314 315 317 321 323 328 331 328 335 338 338 350 351 351 351 350 350 350 351 351 352 351 350 349 350 350 350 349 349 349 349 346 346 345 345 346 347 346 345 345 344 343 343 343 344 344 345 344 343 342 342 342 340 338 337 336 336 336 334 332 333 333 333 332 332 331 331 330 331 331 331 331 330 328 327 326 324 323 323 321 317
307 309 309 311 313 314 316 318 318 323 326 332 334 335 336 348 350 350 350 351 351 351 351 350 351 352 350 350 350 349 349 349 350 349 348 346 346 345 345 345 347 345 344 344 343 342 343 342 342 343 343 343 341 341 341 339 339 338 337 334 335 334 331 331 332 332 330 330 330 328 328 328 329 328 328 328 327 326 326 323 321 320 319 320 319
309 309 310 311 314 316 316 318 318 321 322 325 329 335 339 344 348 348 349 350 351 351 351 350 350 349 349 349 349 349 349 349 349 349 348 347 347 346 344 345 346 344 344 344 343 342 342 341 341 341 341 341 341 341 341 339 339 336 336 334 334 332 331 330 331 330 330 330 329 328 327 327 328 326 326 325 322 322 322 320 319 317 316 318 319
314 315 316 318 319 321 323 324 321 321 322 324 322 328 333 339 341 346 346 349 350 350 349 349 349 350 350 348 348 349 349 349 349 349 349 347 347 346 346 345 345 344 344 342 343 342 342 341 341 338 339 341 341 341 340 339 336 335 335 335 334 332 331 330 330 329 328 328 328 327 326 326 326 323 323 321 320 319 318 316 316 316 315 316 319
313 314 316 317 318 319 320 322 323 324 325 326 324 323 325 331 337 338 338 347 350 350 349 350 349 349 349 348 348 348 348 349 349 349 349 347 347 348 346 345 344 344 344 343 343 343 342 342 340 339 339 340 340 339 339 337 336 334 333 333 333 332 331 330 329 328 326 326 325 325 324 324 324 322 321 321 319 317 316 314 313 313 314 313 314
313 313 314 315 316 318 318 319 320 321 323 323 325 325 327 330 330 333 337 342 345 350 351 351 350 350 349 348 347 348 348 347 348 348 348 349 348 347 346 345 344 344 343 344 344 343 341 340 339 338 338 338 338 339 338 336 335 334 333 332 332 331 330 329 327 326 325 324 323 323 323 323 322 320 319 317 316 315 313 311 312 312 312 313 315
312 312 313 314 315 315 316 317 317 318 320 322 322 321 324 329 331 329 331 336 340 344 350 350 351 349 348 347 347 347 347 347 348 348 349 349 349 347 346 344 344 344 344 344 344 343 341 341 340 338 337 337 338 338 336 335 335 335 334 333 331 329 329 329 328 326 326 323 323 322 322 322 320 319 319 314 315 314 312 312 312 312 312 315 316
311 312 312 313 313 314 315 317 317 318 317 318 321 321 321 323 330 334 335 332 334 338 347 350 350 348 347 347 347 347 346 347 347 348 348 349 349 347 345 345 344 343 344 344 343 341 341 340 340 339 337 337 338 338 336 335 334 335 334 332 331 329 329 329 327 326 324 323 322 321 321 321 319 318 316 315 315 314 312 312 311 310 311 317 316
310 311 312 312 313 315 316 317 317 319 320 319 319 321 320 322 326 332 335 338 339 336 341 348 348 348 346 346 346 345 346 346 347 347 349 349 348 348 346 344 343 344 344 344 343 342 342 340 340 340 338 337 337 337 337 336 335 335 333 331 329 329 329 328 327 325 323 322 321 321 321 320 318 317 316 315 314 314 313 312 311 311 314 313 310
310 311 310 311 312 314 316 317 318 319 319 319 320 321 321 320 323 329 333 336 339 343 346 348 347 346 346 346 346 346 346 346 347 347 347 349 348 348 346 344 344 344 344 344 342 341 342 341 341 340 339 338 338 337 337 337 335 333 331 329 328 328 327 326 326 324 322 321 320 320 320 319 318 317 317 315 316 313 313 312 311 313 313 309 306
307 309 310 311 312 313 315 316 317 320 321 322 321 320 321 321 323 325 330 334 338 342 347 346 346 345 346 345 346 346 346 346 345 345 346 346 347 347 346 344 344 344 344 343 343 342 342 341 341 340 338 338 338 338 337 335 334 331 329 327 327 326 326 325 323 322 321 320 319 320 320 319 318 319 316 315 315 314 313 311 313 313 311 307 307
306 308 310 312 312 314 315 318 320 321 322 322 323 322 321 321 321 324 328 332 332 336 344 345 343 344 346 345 345 346 345 345 344 344 345 346 347 346 345 344 343 343 343 343 342 342 341 341 340 339 339 338 337 337 328 319 319 329 329 327 326 326 327 326 322 321 320 318 318 318 319 319 316 312 308 304 303 305 309 317 313 312 309 307 307
306 308 309 311 313 313 316 316 318 319 322 324 327 326 325 322 320 322 325 334 336 336 341 345 343 345 345 345 345 345 344 343 343 343 344 345 345 345 345 343 343 342 342 342 342 341 341 341 340 338 338 338 337 335 310 307 308 312 325 328 326 326 327 326 321 320 318 317 318 317 319 316 314 311 309 301 301 301 300 299 300 305 312 317 309
306 307 310 311 312 314 315 316 318 319 320 324 329 330 327 323 322 321 322 330 335 332 334 343 344 345 345 344 344 344 343 343 343 342 342 343 345 344 343 343 342 341 342 343 342 341 340 341 340 339 338 337 338 313 304 305 305 306 314 327 327 326 326 323 321 319 318 317 317 317 317 315 314 313 312 310 306 300 297 297 297 297 295 294 297
307 308 310 312 313 315 317 317 319 318 319 322 328 329 327 328 326 326 322 328 335 334 337 342 343 345 345 344 344 344 343 342 342 342 342 343 343 344 343 342 341 342 342 341 341 341 340 340 340 338 337 336 335 304 304 303 303 304 306 318 326 326 324 323 321 318 317 317 316 316 315 314 313 313 311 310 308 307 301 298 299 299 299 297 293
309 312 313 313 314 315 317 318 320 322 321 320 325 330 331 330 328 330 327 328 330 331 339 342 343 344 344 344 344 343 342 342 342 341 341 341 342 342 342 342 341 340 341 340 341 340 340 339 339 338 337 335 332 305 302 302 302 302 303 311 326 325 324 323 320 318 318 317 316 315 315 313 313 311 310 308 308 307 306 306 306 307 309 307 296
311 311 312 314 315 316 317 320 323 323 324 324 325 329 332 333 334 331 327 328 329 332 339 342 342 343 343 344 343 342 341 341 341 341 341 340 341 341 342 341 340 339 339 339 338 339 339 338 339 338 336 334 330 302 301 301 301 301 301 308 328 325 324 323 321 319 318 317 316 316 316 313 312 310 310 309 309 308 307 307 306 305 305 307 308
310 310 312 314 317 318 320 322 324 325 323 322 323 327 330 333 334 333 332 331 332 335 337 338 340 342 342 343 343 341 340 341 341 340 340 339 340 341 341 340 339 339 340 339 339 338 338 338 338 337 335 333 323 299 300 300 300 300 300 321 326 327 325 322 320 318 317 316 316 316 315 312 312 310 307 300 305 309 308 307 305 305 304 305 306
311 311 312 314 319 320 321 321 325 325 324 325 326 327 328 333 333 331 330 331 334 335 336 338 340 342 341 341 342 341 340 341 340 339 339 339 339 340 341 341 339 338 338 338 337 337 338 337 336 335 335 333 320 302 299 299 299 299 305 321 324 324 322 320 319 318 316 316 316 316 315 313 313 311 304 297 298 304 308 306 304 304 304 306 306
310 312 313 317 319 320 322 324 324 325 326 327 328 328 327 330 332 331 332 333 332 335 336 336 338 340 340 342 342 341 340 340 339 338 338 339 340 341 340 339 337 336 336 336 337 336 337 336 336 335 335 333 322 306 298 298 299 299 309 320 322 324 320 319 317 317 316 316 316 313 315 314 314 314 297 296 296 306 308 306 304 304 304 305 307
312 313 316 316 318 318 321 323 324 324 325 327 327 326 324 327 332 333 332 331 332 334 337 338 339 341 341 341 341 340 340 340 338 338 340 338 339 339 339 338 338 338 337 337 334 335 335 335 335 336 325 330 323 307 297 298 298 299 310 320 320 319 318 317 316 315 316 316 315 314 312 312 315 308 295 296 296 304 309 306 307 305 304 305 307
318 317 318 317 316 316 319 322 322 323 324 324 323 324 324 326 331 333 333 332 334 336 333 330 335 341 340 340 341 341 340 340 339 339 339 339 340 339 338 337 337 336 336 335 333 334 334 334 335 334 333 332 323 312 303 296 298 298 304 319 320 318 316 315 316 314 314 314 315 314 311 300 298 295 295 294 295 299 308 308 307 306 305 305 308
316 316 312 317 317 318 318 321 322 323 324 324 323 324 326 328 332 333 332 331 332 330 333 331 333 338 338 338 339 339 338 339 339 339 340 339 339 338 337 336 336 336 335 333 333 333 334 334 334 334 331 332 325 314 305 296 297 298 301 309 318 318 317 315 315 313 313 312 312 312 312 297 294 294 294 294 295 296 300 309 309 307 308 310 305
315 314 315 317 317 318 320 323 326 325 323 322 321 323 327 331 333 334 335 335 335 335 337 337 337 336 336 336 336 337 339 339 340 340 340 338 337 336 337 337 336 336 334 332 331 330 332 333 333 332 331 331 323 310 309 297 296 298 300 304 316 318 316 315 314 313 312 312 311 312 311 298 293 293 294 294 294 295 294 309 313 296 293 295 307
315 315 317 317 317 317 319 322 324 325 325 321 320 322 327 332 331 330 334 337 337 336 336 337 336 336 337 337 338 339 340 341 341 340 338 336 335 335 336 336 335 335 333 331 328 329 330 330 332 331 331 331 327 313 302 302 296 296 298 301 304 311 302 315 314 312 312 310 313 314 309 295 293 293 293 293 294 294 295 303 290 292 294 294 300
316 317 317 317 316 317 319 323 323 325 325 320 320 323 326 330 329 331 331 329 332 338 337 337 337 337 337 337 337 339 341 341 339 337 335 335 335 336 336 335 335 332 330 329 327 327 327 327 327 327 328 328 323 316 302 299 299 295 297 299 298 300 301 313 315 312 311 311 313 313 306 293 292 292 292 292 293 293 300 291 290 291 292 297 304
315 317 317 315 315 316 318 322 324 326 325 322 324 325 330 331 331 330 328 326 325 331 338 337 337 337 338 337 337 339 339 339 338 337 334 333 335 335 334 333 333 331 329 327 326 325 325 325 325 325 325 327 321 315 309 301 296 295 295 296 295 295 299 301 311 313 313 313 305 299 294 292 292 292 291 291 292 292 292 291 290 290 299 304 303
316 316 318 319 320 320 321 319 323 328 326 324 324 326 330 331 331 328 326 325 326 326 333 336 336 337 338 339 339 339 338 337 336 335 333 333 333 333 331 331 332 331 330 328 326 325 325 326 326 327 324 325 323 314 310 305 299 298 297 295 294 295 299 300 305 310 299 295 294 294 293 292 292 292 296 298 298 298 292 291 290 295 305 303 302
316 318 320 322 323 321 319 321 327 329 327 324 326 327 330 334 332 329 327 326 326 325 327 334 337 337 338 339 338 338 337 337 336 334 334 334 334 332 330 327 329 329 328 326 324 324 325 325 325 325 324 324 323 313 308 304 302 301 301 300 300 301 298 299 306 302 299 301 296 298 297 295 295 293 295 295 296 295 295 297 299 300 302 303 304
316 318 319 321 323 322 322 323 324 325 326 327 327 329 333 332 331 328 328 326 324 324 326 332 337 337 337 337 336 316 326 335 334 334 333 333 332 331 329 327 328 328 327 325 323 323 325 325 323 323 322 317 314 310 307 304 302 301 302 302 304 305 306 308 309 309 309 305 303 296 295 300 299 299 300 300 301 300 298 298 299 299 299 302 303
316 318 318 318 321 324 325 326 325 326 323 325 330 329 327 328 325 326 327 323 319 316 322 327 334 337 334 335 337 334 334 333 332 332 333 332 330 329 329 329 331 330 329 327 325 324 325 327 326 324 320 316 314 311 309 301 304 298 300 302 304 306 307 308 306 302 308 306 303 302 302 301 300 300 300 301 301 302 300 300 301 303 303 304 305
318 318 318 317 319 325 325 325 326 326 327 330 330 328 330 331 326 329 327 325 323 321 322 322 324 330 334 334 334 332 334 332 332 331 331 328 309 314 323 331 329 314 308 308 310 323 326 327 326 326 323 318 316 316 302 298 297 296 297 298 300 301 300 305 300 298 303 306 305 304 303 302 301 301 301 300 301 303 303 302 303 299 304 305 305
317 316 316 317 318 322 325 324 326 327 325 327 329 332 332 332 328 327 326 326 325 325 323 323 322 323 326 331 331 331 332 332 332 331 329 321 319 310 294 291 301 311 305 304 304 306 306 309 323 327 320 307 307 302 297 297 295 295 296 296 297 298 297 297 296 301 307 304 303 302 303 303 302 302 301 302 302 302 300 302 304 304 305 305 303
Wind_Speed
14 14 14 13 14 12 10 13 13 14 15 15 15 16 16 16 15 16 14 15 14 14 13 13 13 13 12 12 12 11 12 11 10 9 9 9 10 11 11 10 10 11 11 11 9 8 8 7 7 7 7 7 7 7 7 6 7 5 4 5 7 6 8 5 5 4 8 5 3 4 4 4 4 3 2 3 4 4 4 4 3 3 4 4 5
19 16 13 13 12 14 12 10 14 15 13 15 17 17 16 16 16 15 14 14 15 16 14 12 12 13 12 12 12 12 12 11 11 10 9 9 10 11 10 11 11 11 10 10 9 8 8 7 8 7 7 7 7 6 7 7 7 6 4 6 7 6 5 9 7 7 7 7 8 7 5 4 4 3 3 4 4 4 5 4 4 4 5 5 4
16 18 17 17 16 14 13 11 12 15 15 15 15 16 16 16 16 16 14 16 15 15 14 14 13 12 11 11 12 10 11 10 10 11 9 9 10 11 11 11 11 11 11 10 9 9 8 8 8 7 8 7 6 7 7 8 7 8 9 7 6 6 5 6 9 10 7 8 8 7 6 5 5 5 7 8 7 6 4 5 5 6 7 6 5
23 23 21 17 17 16 14 13 12 13 13 14 16 17 15 14 14 14 15 16 16 16 16 15 14 13 12 10 11 10 10 10 10 11 12 11 11 12 11 11 12 11 12 11 10 9 9 9 8 8 7 7 7 7 7 7 7 7 7 7 7 6 7 7 8 9 5 8 7 6 5 5 5 8 8 7 6 8 7 6 6 6 6 7 5
19 21 19 19 19 18 14 13 14 14 14 15 16 16 13 17 17 16 15 15 15 16 16 15 13 12 11 11 12 11 10 11 10 10 11 11 11 12 12 12 12 11 12 12 10 10 10 9 8 8 8 8 7 7 6 7 8 8 8 7 8 6 7 6 7 8 7 7 4 5 4 5 5 4 8 6 7 8 9 7 6 7 6 7 6
20 20 17 19 17 15 12 13 15 16 17 17 17 17 16 16 17 17 15 15 17 19 18 14 13 13 13 13 14 13 12 13 13 12 11 11 12 10 12 13 13 12 12 12 12 10 10 10 9 9 9 8 8 7 6 7 8 8 8 8 9 8 6 6 7 7 7 7 6 5 3 2 1 6 6 5 7 7 7 9 8 8 7 7 7
21 20 21 18 16 14 12 13 14 16 16 16 16 16 17 16 16 16 14 13 15 17 18 13 14 14 16 15 14 13 12 11 10 10 10 12 11 12 12 12 13 13 12 12 12 11 10 10 10 10 9 8 8 7 7 7 7 8 7 8 8 7 6 6 6 7 6 7 6 6 5 5 3 3 5 3 6 6 6 7 7 8 7 8 8
20 21 23 20 18 15 13 12 13 14 15 16 15 15 16 15 14 15 11 10 12 14 17 13 14 14 16 15 14 13 12 11 12 11 10 10 12 13 12 11 13 13 12 12 12 11 10 10 10 10 9 9 8 8 7 7 7 8 8 8 7 7 7 4 7 6 7 6 7 7 6 6 5 5 7 6 4 4 7 6 7 7 8 7 7
21 18 21 22 19 19 17 16 15 15 15 16 15 15 15 14 15 16 16 15 15 19 16 15 13 14 14 14 13 13 13 11 11 11 11 11 13 12 12 12 12 13 12 12 12 12 11 10 11 11 10 9 8 8 8 8 9 8 8 7 7 6 5 5 5 6 7 6 7 6 6 6 7 7 7 7 6 6 7 8 7 7 6 7 7
20 22 20 21 18 16 15 15 16 15 16 16 16 15 15 14 14 14 15 14 16 18 16 17 16 13 14 14 15 13 13 12 12 12 12 12 13 11 11 11 12 11 12 14 14 13 13 11 11 12 11 9 8 9 9 9 9 9 9 9 8 7 6 6 6 5 5 5 6 6 7 7 6 7 7 7 7 7 8 5 9 10 10 9 9
21 22 20 20 18 19 20 19 16 15 12 14 16 17 16 17 17 19 19 16 17 17 18 18 17 16 15 16 16 15 15 14 13 14 13 13 14 14 12 11 10 11 11 11 14 12 13 12 10 11 10 9 9 9 8 9 9 9 8 9 9 9 6 6 7 7 6 7 8 7 7 7 7 7 7 7 7 6 7 7 7 10 11 10 10
23 21 23 23 20 17 15 17 17 13 12 15 14 15 17 17 18 20 19 18 17 15 17 17 17 16 16 17 17 15 15 13 15 15 16 16 14 14 13 12 12 11 10 10 11 13 12 12 11 11 11 10 10 8 8 9 8 8 8 8 7 8 8 6 7 8 9 4 7 7 7 7 7 7 7 7 7 7 6 6 5 6 9 8 10
22 21 20 19 19 16 18 16 15 13 12 16 15 15 16 17 20 20 20 19 17 18 19 19 19 18 18 18 16 14 15 16 16 14 14 14 13 13 14 14 13 12 13 13 13 14 13 12 11 10 10 10 10 9 9 10 9 8 9 9 8 9 8 9 5 8 8 9 10 9 7 8 8 7 7 7 6 6 7 7 7 8 8 9 14
22 21 22 21 18 16 11 13 16 13 13 12 15 15 15 16 19 19 20 19 18 18 19 18 20 19 18 18 15 15 14 14 14 14 14 13 14 15 15 14 13 14 13 14 13 14 13 13 12 11 10 10 10 10 10 10 9 9 8 8 8 7 7 8 9 10 10 10 7 7 8 9 7 6 7 7 7 7 7 7 7 7 6 4 4
19 21 19 17 17 17 14 13 11 11 13 13 12 14 15 16 17 19 19 20 21 19 17 19 18 19 18 17 16 13 14 14 14 13 14 14 13 14 14 14 14 13 14 13 14 14 14 13 13 12 11 11 11 10 9 10 10 10 9 9 9 8 10 10 9 9 8 9 10 8 7 7 5 6 6 7 7 7 7 6 7 8 5 3 9
18 20 18 18 18 18 15 12 12 13 14 12 15 15 17 16 18 20 21 21 21 20 19 19 18 18 18 18 18 15 13 14 13 12 13 15 14 15 15 14 14 14 12 13 14 14 14 15 14 12 12 12 11 11 11 10 10 10 9 9 9 8 7 9 7 7 8 9 8 7 7 7 6 7 7 6 7 6 6 7 7 8 8 8 7
12 15 16 16 13 10 12 15 15 15 15 13 13 14 19 17 17 19 20 19 21 20 19 19 19 19 19 18 19 16 16 17 15 15 15 14 14 13 14 15 14 13 13 13 14 14 13 14 14 13 13 12 12 11 11 10 10 10 10 10 10 8 7 8 8 8 9 8 7 9 8 8 7 7 7 6 7 7 8 7 8 9 8 9 6
16 14 15 16 16 16 14 13 18 19 17 16 19 19 18 17 18 19 19 20 20 19 19 18 19 19 18 20 20 17 16 16 15 16 16 14 14 15 14 13 15 14 13 12 14 15 14 15 14 13 13 12 12 12 11 11 11 9 10 10 9 8 7 6 7 10 10 9 9 9 9 9 9 9 9 7 7 8 10 11 7 6 6 7 7
16 17 18 17 16 16 16 15 18 19 18 20 19 18 19 17 17 18 20 20 21 18 19 17 18 15 16 18 18 16 16 16 15 16 13 15 17 17 15 13 13 14 14 14 15 15 14 14 14 14 12 13 13 13 12 11 12 10 10 8 8 8 8 9 9 9 9 10 10 11 11 10 9 8 8 8 9 7 4 4 6 6 6 6 6
15 16 18 19 19 18 18 17 18 19 19 19 20 20 22 18 17 17 17 18 18 19 17 17 17 16 17 17 17 17 17 17 17 17 16 16 17 18 16 15 14 14 16 17 16 16 16 16 15 14 13 13 13 12 13 13 12 10 9 9 8 10 10 10 10 9 9 10 11 12 11 9 8 8 7 4 5 6 7 7 7 7 7 6 5
15 16 17 17 16 18 19 18 18 17 16 16 16 17 18 17 17 18 18 18 19 19 18 17 16 17 17 17 16 17 19 18 19 19 17 18 15 15 16 15 14 16 16 16 17 17 17 17 16 15 16 13 13 12 11 11 11 11 10 11 11 11 11 11 10 11 10 10 10 10 11 11 8 8 8 7 7 8 8 7 6 6 7 6 5
5 5 6 7 8 10 10 9 8 10 13 15 16 16 17 17 17 18 18 18 19 19 17 17 17 17 19 17 17 16 16 17 18 19 17 18 17 15 13 14 16 18 17 17 17 15 16 17 16 17 16 15 15 14 13 11 11 12 10 9 12 12 13 11 11 11 11 9 9 11 11 11 9 9 8 8 8 7 7 7 7 6 6 6 6
8 8 8 8 9 10 11 13 12 11 10 10 12 15 17 18 17 15 18 17 18 19 18 17 17 18 19 17 17 17 17 18 19 18 19 19 17 15 15 15 15 16 17 17 17 17 18 19 18 17 17 15 15 14 12 13 12 14 13 12 13 13 13 12 11 11 11 10 10 10 10 9 7 9 8 7 7 7 6 7 7 7 6 6 6
10 9 10 10 11 12 12 14 14 13 13 13 13 13 13 15 18 16 15 16 17 17 17 18 18 18 18 18 18 17 18 18 19 18 20 19 17 15 15 15 16 16 17 15 17 19 18 18 18 17 17 15 15 14 14 13 15 15 15 14 12 11 11 11 10 10 10 10 10 10 10 9 9 9 8 7 6 6 6 6 7 5 6 5 5
11 12 12 12 12 13 14 14 15 16 15 14 15 15 15 14 15 19 18 16 16 15 17 18 18 19 19 19 19 18 18 18 18 18 20 19 18 16 15 17 17 17 17 17 16 17 18 18 17 19 19 16 15 15 15 13 13 13 14 14 12 11 10 10 10 10 10 10 10 10 10 10 9 9 8 8 7 8 6 6 6 5 5 5 4
12 11 12 12 12 12 13 13 12 14 15 16 16 16 16 16 16 16 17 18 19 18 18 18 17 18 19 20 19 18 19 19 20 19 20 18 17 16 16 16 18 19 18 17 18 17 17 19 19 19 19 18 16 15 16 16 16 15 14 14 11 11 10 10 10 10 10 10 10 11 10 10 10 9 9 8 8 9 7 6 7 6 6 6 4
15 13 11 11 12 12 12 12 13 14 15 15 16 17 17 17 16 17 17 17 17 18 20 17 17 18 17 19 19 19 18 19 18 19 17 17 18 16 16 18 16 17 18 18 17 18 15 18 19 19 19 19 17 15 16 16 17 16 15 13 11 10 11 10 10 10 10 10 10 10 10 10 10 10 9 9 8 9 7 7 7 6 6 7 6
11 12 15 15 12 12 12 12 13 14 15 16 17 16 17 17 16 17 17 17 13 18 18 17 17 17 17 18 18 18 19 19 17 18 18 16 18 18 18 17 15 16 18 19 19 18 14 16 18 18 18 16 15 14 16 16 16 16 13 12 11 10 10 10 10 10 10 10 11 10 10 10 10 10 9 9 9 9 7 7 6 6 6 6 6
14 16 17 14 12 10 10 12 13 14 16 16 17 17 16 16 16 17 17 17 16 17 18 17 17 17 17 17 17 17 16 17 17 18 19 18 17 16 16 15 14 15 14 18 18 17 16 18 19 19 19 17 16 15 15 15 16 15 13 12 12 11 10 10 10 11 10 11 10 10 10 10 10 9 11 9 9 8 8 8 7 7 7 7 6
17 16 15 14 12 12 11 10 10 12 14 16 16 18 19 18 17 16 17 17 17 18 18 18 18 18 18 18 18 16 17 17 18 18 19 20 18 16 15 15 16 17 17 17 17 15 16 17 19 19 18 16 14 14 13 18 16 13 13 11 10 10 11 11 10 11 11 11 11 10 9 11 9 10 10 10 10 9 8 3 7 8 8 7 7
18 17 17 15 14 13 11 11 9 9 11 13 14 16 18 19 18 18 18 16 17 18 18 18 19 18 18 19 18 18 18 19 19 19 20 21 20 15 16 18 16 16 17 17 16 16 14 17 19 20 20 17 14 11 18 19 17 16 14 12 12 11 12 12 11 11 11 11 11 11 8 10 11 10 10 11 9 8 8 8 10 9 6 2 7
19 16 14 13 13 12 12 11 10 9 10 11 11 13 16 18 19 20 19 18 19 19 21 20 18 18 19 20 18 19 19 19 19 20 20 20 17 17 16 16 15 17 16 17 18 16 14 15 16 19 19 15 12 15 22 20 18 18 14 12 11 11 11 11 11 11 10 11 11 11 9 9 9 11 10 9 8 8 8 8 9 9 9 9 9
17 14 12 12 13 13 11 11 12 10 10 11 11 13 13 13 16 18 18 18 17 20 22 19 18 19 19 18 18 19 20 19 19 20 19 19 19 17 19 17 17 15 15 17 18 15 14 17 16 19 17 15 11 18 21 22 19 18 16 14 11 11 11 11 11 12 12 11 11 10 9 9 9 12 11 11 10 7 7 7 7 7 8 8 7
15 13 13 12 11 13 11 10 11 12 13 12 10 9 12 13 14 15 19 19 20 22 20 19 19 19 19 19 19 19 20 20 20 19 20 20 20 21 19 16 14 12 12 15 19 17 14 15 17 18 16 14 12 19 22 22 21 19 18 14 12 12 10 12 12 12 11 11 11 10 10 10 9 11 10 12 11 10 8 6 5 5 5 5 5
17 15 13 11 12 14 16 14 13 11 11 10 10 9 11 13 14 17 20 20 20 20 20 19 19 19 19 19 20 20 20 20 20 20 19 21 20 20 18 15 12 14 15 15 17 16 13 14 16 18 14 15 11 23 22 22 21 20 19 14 11 11 10 11 11 11 11 11 11 11 10 11 11 12 10 13 11 11 10 8 8 7 7 7 5
16 16 14 11 9 12 15 16 14 12 11 11 10 8 10 11 12 16 17 19 19 20 20 19 19 19 20 20 20 20 20 19 20 20 20 21 22 20 19 18 15 14 15 15 11 13 14 15 15 18 14 15 12 24 23 22 22 20 20 10 10 12 12 11 11 11 11 11 11 11 11 11 12 13 11 14 11 11 10 9 9 7 7 6 7
16 16 16 13 9 11 18 18 14 11 11 10 9 8 10 11 12 15 18 17 18 20 20 19 19 20 20 20 20 21 20 20 20 20 21 22 21 22 19 15 13 11 14 14 13 12 13 13 15 18 16 14 13 21 24 23 23 22 16 10 10 9 10 11 11 11 11 11 11 12 11 11 12 12 13 14 12 12 10 10 8 8 8 7 7
17 19 16 11 12 11 16 15 15 13 12 10 10 9 10 11 13 15 16 15 16 18 18 19 19 19 19 19 20 21 20 20 20 21 21 20 20 18 20 16 16 17 14 13 12 13 12 13 16 20 17 14 12 18 24 23 23 23 19 13 11 12 11 11 11 11 10 10 12 14 13 11 12 11 17 15 14 12 10 10 10 10 9 8 8
15 12 11 14 12 14 16 19 17 15 13 12 12 12 11 12 13 14 15 18 17 18 16 16 18 19 19 19 19 20 20 20 20 19 18 20 18 19 16 14 15 14 13 12 12 12 13 12 15 17 15 13 12 17 23 23 23 23 18 11 12 11 12 11 11 11 11 10 10 10 12 11 11 13 20 15 14 12 10 10 9 9 10 10 8
11 12 12 13 15 16 17 18 20 17 14 14 13 11 12 13 13 13 15 18 18 16 16 18 20 18 16 17 16 18 18 18 19 17 17 19 15 13 11 13 13 14 12 12 12 12 14 16 16 16 11 11 12 13 18 23 23 23 21 14 11 11 11 12 11 11 11 10 10 10 10 3 12 20 18 17 14 13 9 9 9 9 9 9 8
16 13 11 13 13 13 17 19 18 16 12 12 11 10 11 12 14 14 16 18 19 18 19 19 18 16 17 19 18 19 19 18 19 18 15 16 14 11 12 14 14 12 12 13 14 16 16 15 14 15 12 13 10 13 16 23 23 24 22 17 12 12 12 12 11 11 11 11 10 11 9 11 17 18 17 17 15 14 7 6 8 7 7 6 8
15 15 14 12 12 15 18 21 19 16 14 11 13 10 10 11 12 15 16 16 18 16 15 15 16 18 18 18 18 16 16 15 17 15 13 12 10 13 13 15 14 13 11 15 13 12 11 13 12 14 13 14 13 18 14 20 23 24 23 19 12 12 12 12 12 11 11 10 10 10 8 12 17 16 16 16 15 14 9 4 6 6 9 10 7
15 15 13 11 13 14 17 20 17 15 10 11 13 12 10 9 7 13 14 15 15 15 16 16 16 16 16 17 17 15 13 12 12 15 15 12 12 14 14 14 14 13 12 12 13 11 13 13 12 11 12 14 12 14 20 17 20 22 24 19 17 13 13 11 11 11 11 11 9 9 10 18 18 18 16 16 15 14 12 3 7 10 8 8 3
14 15 14 13 13 14 16 19 16 15 10 11 12 10 9 8 11 11 5 11 18 17 15 16 15 16 16 16 16 15 13 14 13 13 13 13 15 14 14 11 11 10 10 11 11 10 8 8 9 9 9 12 9 10 17 22 20 23 22 22 14 13 16 11 9 9 10 10 11 10 12 20 18 17 17 16 16 14 9 10 5 8 10 6 7
13 13 12 11 12 14 18 19 18 15 12 12 11 10 6 9 12 8 5 8 14 19 15 16 17 16 16 17 15 13 12 12 13 12 13 14 14 14 12 11 14 12 13 13 11 11 11 12 11 11 10 12 10 10 10 16 23 22 21 18 12 11 17 14 9 8 9 10 9 17 21 19 18 18 18 17 13 13 13 11 9 7 6 6 7
12 11 9 9 11 15 19 22 20 16 12 11 9 8 8 10 9 8 9 8 11 18 18 16 15 15 16 16 13 13 14 15 13 13 14 12 13 13 11 11 10 16 16 16 14 13 13 13 13 11 11 13 12 9 10 12 13 18 17 16 7 12 16 14 10 8 10 14 18 20 21 19 17 15 12 8 7 8 10 10 10 7 6 7 8
12 12 12 10 11 13 18 22 20 15 12 10 7 7 8 9 8 8 6 7 8 13 15 14 13 13 12 11 14 13 14 14 13 11 11 13 10 9 10 12 15 13 13 13 11 13 14 14 12 12 13 10 11 10 9 9 10 9 9 12 6 7 12 12 10 9 10 9 14 15 13 14 11 15 14 11 10 10 9 5 6 6 7 8 8
10 11 12 12 13 16 18 18 17 13 9 7 6 6 5 3 4 3 4 4 7 12 16 16 14 13 12 13 15 14 15 11 11 14 15 12 8 9 10 12 15 15 15 11 11 14 16 15 14 14 9 8 8 9 10 13 13 12 10 9 8 7 8 10 10 9 9 10 9 11 13 9 8 8 8 8 8 8 8 8 8 9 9 10 9
8 8 8 10 12 15 15 13 12 11 11 9 5 4 5 11 4 6 6 3 6 9 8 13 14 11 11 10 12 12 12 11 12 13 12 9 11 11 12 12 12 12 12 15 16 15 15 15 14 15 13 11 11 12 13 13 17 21 20 14 12 11 9 10 11 15 12 9 10 9 8 9 9 10 9 9 10 10 10 10 11 10 10 11 10
7 8 8 7 11 13 13 10 7 8 10 8 4 3 1 10 9 6 6 7 7 9 10 7 9 6 7 9 8 9 10 12 15 13 10 7 3 7 14 12 10 13 15 14 14 14 12 11 11 11 13 14 16 14 17 21 21 24 26 29 25 20 16 14 15 19 13 10 10 10 11 11 11 11 11 11 12 11 11 11 12 12 11 11 11
10 8 8 8 10 11 7 6 6 5 7 8 6 4 5 5 10 10 8 4 3 6 8 7 6 7 8 8 9 10 11 10 10 10 11 8 5 7 12 10 2 11 17 19 16 15 17 16 14 13 12 10 10 16 24 24 24 25 26 24 23 23 21 19 19 15 12 10 10 10 11 12 12 12 11 12 11 11 8 8 11 12 12 11 9
Wind_Direction
192 196 199 196 176 181 182 167 161 169 166 170 177 178 179 175 174 178 179 177 179 180 185 189 189 191 196 196 196 192 198 198 197 197 183 196 188 189 179 184 187 194 196 200 203 204 212 199 188 191 196 199 199 208 214 212 197 193 193 228 210 195 157 155 152 175 136 130 101 149 146 178 176 229 197 218 212 167 169 197 164 159 168 170 188
180 199 197 207 195 170 171 175 160 166 171 174 182 182 179 176 174 175 179 180 183 182 182 190 194 195 193 194 196 192 197 196 188 198 186 189 190 188 185 186 186 193 196 200 202 206 206 201 194 198 199 201 202 208 213 213 201 174 205 240 208 200 176 152 176 162 166 169 165 169 176 183 190 216 221 214 239 197 182 193 161 192 176 183 167
196 200 194 202 206 170 170 174 176 169 172 183 185 181 180 182 180 177 184 184 185 182 179 187 197 200 193 194 194 191 196 195 187 192 180 192 187 188 189 187 187 192 194 200 199 207 208 204 201 197 201 200 201 207 210 209 209 198 203 213 205 200 182 162 176 193 184 168 172 165 177 188 196 226 223 231 198 222 197 187 186 200 191 188 169
209 207 184 195 201 190 171 173 180 167 170 182 189 189 185 185 184 181 184 188 189 188 186 185 194 192 193 192 194 200 189 191 200 184 180 190 187 192 192 189 191 194 193 197 200 202 204 206 202 199 198 204 205 205 203 207 201 207 202 219 216 202 197 181 189 207 205 174 181 199 172 213 206 218 199 211 202 209 205 202 185 210 198 186 173
218 217 183 183 201 202 183 177 167 171 175 181 186 187 188 187 186 184 183 190 190 187 189 184 185 184 185 191 193 202 193 189 195 187 188 189 192 195 197 190 193 194 193 199 200 199 203 208 204 198 200 199 207 208 203 204 203 203 201 214 215 212 200 186 191 206 214 209 219 187 164 212 261 142 180 182 196 207 203 203 186 205 209 188 185
218 223 187 182 183 184 178 175 180 177 174 181 186 185 186 188 183 182 189 190 195 187 187 188 179 179 178 188 191 197 194 189 189 189 184 186 197 192 201 193 194 193 195 198 201 200 200 205 208 206 200 201 207 208 203 200 203 204 201 210 213 216 217 195 195 202 216 219 235 261 26 323 16 139 176 192 186 216 210 195 198 202 214 198 197
218 218 221 184 175 175 181 186 192 189 184 178 182 184 186 186 184 184 185 186 195 192 188 185 178 181 183 188 193 194 198 192 187 190 186 192 193 189 201 194 196 194 198 199 202 202 203 202 202 211 203 201 199 203 205 204 202 206 201 208 211 209 212 211 207 193 204 222 225 240 236 222 244 199 215 157 171 196 231 187 204 199 205 219 204
219 212 225 202 182 176 181 189 198 203 187 178 178 181 183 183 177 179 180 181 192 191 192 185 179 182 187 192 193 194 202 193 185 185 190 190 194 196 192 194 196 195 195 201 200 198 207 202 202 209 213 199 195 200 204 201 205 201 202 206 207 207 203 209 224 201 205 203 211 217 225 232 240 250 281 284 270 218 195 208 196 207 194 215 225
230 220 216 225 181 180 176 185 190 210 198 186 179 175 178 178 177 178 179 181 198 195 189 186 186 187 187 193 195 195 196 199 188 184 189 189 199 197 190 194 195 199 198 202 203 201 205 206 205 207 211 208 194 201 201 199 204 201 197 198 203 205 198 220 232 211 206 217 193 215 221 227 228 232 243 242 253 252 243 186 191 186 215 205 222
240 237 226 223 210 179 176 178 190 198 203 187 179 177 178 178 181 176 179 183 195 194 188 188 192 189 193 194 193 192 191 192 189 186 190 191 198 186 186 197 199 199 205 205 204 203 205 205 206 209 206 209 201 204 197 199 201 202 201 201 202 205 198 209 221 223 216 224 222 206 218 220 233 235 224 234 236 249 267 214 183 191 203 208 200
230 232 233 227 220 204 174 183 194 197 202 185 177 178 178 180 180 182 185 187 192 189 186 191 193 196 198 191 193 194 191 191 186 186 189 191 198 191 190 197 200 196 203 208 206 202 207 207 209 208 207 206 207 205 200 200 200 203 198 199 208 204 197 216 214 224 226 225 219 216 215 215 217 216 224 211 231 233 233 242 227 198 212 203 189
230 228 228 228 226 213 183 179 186 178 186 198 181 173 177 178 178 181 186 189 188 189 189 193 196 198 201 194 189 192 191 195 193 187 187 190 194 193 193 198 200 198 197 207 206 203 207 208 208 211 208 205 204 208 200 201 194 200 194 199 207 205 204 210 212 221 218 225 241 226 220 223 216 223 224 235 226 236 242 250 257 229 220 215 176
225 225 227 228 225 211 205 192 193 175 180 189 189 177 177 179 179 181 186 191 190 189 189 192 198 201 202 201 191 192 197 200 204 196 187 188 186 188 191 197 196 198 199 202 204 203 205 207 205 208 210 203 204 204 203 204 193 196 199 195 198 208 206 210 209 233 225 215 218 217 221 221 225 220 237 251 233 241 246 250 241 243 219 211 166
229 225 220 224 224 216 175 193 195 184 179 187 199 189 180 182 182 185 190 191 193 189 192 194 202 203 202 203 195 191 197 201 204 203 195 191 189 189 193 194 194 198 195 201 198 203 206 204 205 206 208 202 202 204 206 204 197 201 197 185 202 210 201 215 222 222 225 226 225 224 222 221 225 223 226 236 239 233 236 238 248 255 294 309 106
228 228 224 217 221 218 188 185 193 189 187 182 193 208 191 183 182 186 189 191 197 194 192 194 202 204 201 202 201 190 195 201 207 205 200 197 189 191 193 191 196 195 201 201 200 203 203 203 203 204 203 206 201 202 206 208 201 201 206 200 200 200 214 216 222 224 226 220 221 224 228 228 218 229 233 232 236 242 242 238 242 258 225 204 274
224 232 227 223 223 214 207 177 184 193 193 179 196 206 204 189 184 186 188 189 194 194 193 195 200 205 202 200 202 194 197 202 205 207 205 205 197 191 195 194 195 192 196 199 202 203 200 203 201 202 200 203 201 201 203 204 200 204 207 202 206 207 208 212 219 221 228 229 224 223 234 232 224 226 231 228 237 239 238 242 254 253 260 226 206
250 232 232 237 233 220 210 206 193 199 195 191 199 205 214 195 189 191 193 193 194 194 195 197 200 201 201 201 204 198 198 202 203 205 206 201 204 195 194 196 192 193 192 197 199 201 202 203 200 198 200 200 202 202 202 199 194 200 207 207 210 208 213 216 209 212 213 219 222 221 224 229 227 219 221 229 223 228 236 240 237 241 246 262 251
238 236 236 234 228 222 224 215 212 206 203 199 199 205 214 196 191 191 193 197 197 194 195 196 199 200 198 202 201 197 199 203 204 208 206 203 204 203 200 192 193 197 195 195 196 199 200 199 201 199 200 198 202 202 201 198 197 197 204 209 204 207 207 214 218 216 207 194 207 216 217 223 226 213 205 211 227 215 224 239 253 263 247 241 248
239 232 231 235 229 220 217 221 217 216 210 209 215 216 219 203 193 191 192 195 194 194 195 196 196 195 199 198 195 194 200 207 208 210 206 204 205 205 202 194 190 193 195 198 196 194 197 198 199 199 200 200 200 201 200 198 198 198 201 209 200 200 211 216 219 224 227 211 203 213 212 214 227 241 241 193 227 256 265 265 233 239 243 237 251
237 239 234 228 228 225 220 216 219 216 216 213 211 208 214 206 192 194 197 196 194 194 193 196 197 196 200 197 194 193 198 206 208 209 208 204 204 206 204 197 187 196 199 200 197 194 193 197 197 197 199 199 198 194 200 201 196 196 196 203 198 202 207 215 218 214 222 227 224 223 231 237 237 227 234 231 217 210 214 221 224 223 234 239 233
220 227 233 233 228 224 217 215 219 223 219 215 213 214 211 209 200 194 195 194 195 195 194 196 195 198 194 197 196 193 199 204 208 208 208 206 206 204 205 201 191 201 202 198 195 195 195 197 195 196 198 195 192 193 197 200 190 200 200 204 206 202 209 214 217 214 216 217 220 223 222 220 212 196 200 200 201 201 203 217 227 217 224 214 221
297 292 284 288 289 293 296 286 259 234 227 221 218 217 216 213 208 202 193 194 194 194 195 193 195 194 193 195 196 197 199 203 208 209 208 209 205 203 202 194 198 203 203 199 193 196 192 194 197 198 199 192 195 194 195 195 192 201 197 197 211 200 210 216 214 215 206 206 207 211 205 199 189 200 197 197 199 194 196 203 206 223 213 215 205
243 240 246 251 257 258 253 251 245 242 243 243 234 225 217 215 223 221 223 204 192 192 193 192 192 194 193 193 193 196 197 199 204 209 209 208 203 200 198 196 200 203 204 200 195 194 191 193 196 197 194 188 191 194 191 195 196 202 201 201 213 206 209 215 210 209 205 202 205 206 205 189 181 200 195 201 196 189 196 201 205 205 215 212 201
227 231 232 231 232 234 239 239 238 233 227 227 232 232 230 213 207 217 222 220 215 195 190 189 191 193 191 190 193 195 197 198 203 207 210 206 202 198 197 195 201 206 200 200 198 197 195 197 197 198 195 188 189 191 189 191 202 204 203 204 200 189 196 205 209 206 208 202 202 201 202 182 185 192 190 193 186 186 198 194 198 197 207 202 213
230 229 231 231 231 231 229 230 231 228 222 220 222 227 229 227 213 199 209 214 224 217 194 189 188 188 188 190 189 191 196 198 202 206 208 206 204 198 194 194 200 204 199 199 200 199 198 198 197 196 197 190 188 188 187 193 205 205 205 202 194 191 194 202 208 207 209 204 199 201 196 183 185 189 186 189 178 187 190 189 186 191 189 184 177
248 241 238 238 238 240 239 239 237 235 231 224 219 223 226 225 220 208 195 200 208 216 209 190 187 187 187 190 190 191 195 198 201 205 209 206 204 203 196 193 201 203 201 200 203 198 199 198 198 199 200 195 191 188 187 198 205 202 201 200 192 193 193 208 206 207 205 202 199 199 196 186 188 189 184 183 180 179 191 180 188 194 181 149 147
240 245 248 247 244 242 249 248 242 238 235 232 224 219 222 223 220 215 205 204 202 205 211 196 189 189 189 190 192 192 192 197 200 203 205 204 201 200 198 198 199 199 199 200 202 200 197 200 199 201 202 198 195 192 194 195 204 201 198 191 186 189 204 213 208 204 203 199 200 199 195 189 190 189 181 182 174 176 183 180 184 190 154 160 165
238 243 245 248 244 240 239 242 244 242 236 234 232 226 220 219 221 215 212 204 200 211 203 194 190 190 191 192 193 193 193 195 196 201 203 201 202 201 202 200 194 196 199 202 202 200 193 199 202 202 201 197 190 188 196 198 202 195 188 181 179 182 194 196 203 202 200 197 198 199 195 190 191 188 181 179 170 174 173 177 175 162 163 169 184
254 241 241 250 250 247 242 239 239 239 238 236 234 230 225 221 221 220 211 210 211 212 202 193 192 193 193 193 193 194 193 192 194 200 203 203 201 200 196 193 191 198 201 205 203 197 193 200 203 201 200 200 194 191 195 198 196 183 177 175 177 182 188 195 198 199 198 197 196 198 194 190 190 183 176 171 169 170 174 173 166 173 174 182 193
259 258 258 256 250 239 238 244 245 250 244 233 229 230 225 222 223 220 217 205 207 220 210 196 194 194 193 194 195 193 190 190 191 199 202 202 199 197 197 193 189 196 203 206 203 195 195 198 201 198 197 197 195 197 180 175 174 173 171 172 173 179 198 206 197 197 197 197 195 195 192 179 146 128 116 111 114 93 52 52 169 177 178 183 194
258 252 247 248 244 240 236 241 254 254 253 247 239 232 230 226 222 221 218 205 206 217 215 203 199 194 193 193 193 191 190 190 193 199 201 201 197 191 192 197 191 194 203 204 203 195 193 197 201 199 196 194 189 181 152 158 163 164 167 169 172 178 204 204 197 197 195 194 193 192 166 123 130 126 122 121 120 106 93 65 55 59 46 169 199
254 248 246 252 255 248 248 259 273 276 270 260 247 244 240 235 227 222 219 210 207 205 216 209 201 195 194 195 193 189 190 191 192 195 200 198 192 192 193 190 189 194 200 203 202 197 191 194 203 198 193 184 184 139 152 152 159 164 166 167 169 177 191 199 197 197 195 193 193 189 168 163 161 164 150 139 133 119 102 84 81 75 74 57 46
249 251 256 264 264 261 253 256 269 272 273 260 242 233 236 248 248 234 218 210 205 211 215 206 200 197 196 197 193 189 189 190 190 192 195 197 193 189 194 193 189 188 196 203 200 198 193 196 200 197 189 179 171 150 153 158 160 165 162 163 170 176 184 193 196 197 196 193 192 187 175 177 175 156 162 169 167 141 91 90 96 118 95 72 48
264 263 265 273 283 275 262 267 273 283 281 271 260 234 241 236 246 256 231 213 207 211 210 204 199 197 197 194 192 190 191 190 189 191 193 193 191 195 192 193 188 183 197 203 201 196 196 194 200 200 189 176 164 159 159 163 163 164 164 169 171 175 183 193 195 198 196 195 190 187 174 176 170 168 178 174 172 168 165 159 173 194 187 126 106
261 268 265 262 271 287 288 277 275 273 280 273 260 248 227 235 235 239 236 223 217 212 209 205 200 197 196 193 192 191 191 189 188 189 190 192 192 195 191 184 176 186 196 200 196 192 194 196 199 200 187 179 159 162 163 166 165 165 169 176 176 175 186 196 197 197 197 193 188 187 179 178 173 175 182 176 171 169 168 171 180 183 196 193 193
261 263 267 265 268 284 283 278 270 272 268 260 253 247 247 244 244 248 236 225 217 212 209 205 205 198 195 192 191 192 192 188 187 188 190 193 194 191 190 187 178 189 197 198 187 192 198 197 196 197 185 179 153 165 165 166 166 167 169 175 185 196 196 196 194 194 194 193 188 187 182 181 176 180 171 169 172 165 167 170 173 175 188 189 197
259 261 263 262 239 246 264 266 266 267 267 262 260 255 252 240 231 242 241 229 219 213 212 203 203 201 198 193 192 191 190 189 187 188 189 192 192 193 191 179 174 182 192 188 184 192 198 191 193 202 189 176 155 171 165 166 167 166 165 176 180 184 183 193 189 191 195 192 190 187 186 185 174 182 155 167 166 159 168 170 163 178 188 190 191
258 251 254 257 269 271 273 276 273 267 264 260 254 252 251 244 231 231 241 227 228 226 218 209 207 205 198 195 194 192 190 188 187 189 189 191 192 192 191 181 182 185 182 181 184 195 197 192 195 203 196 176 157 169 167 167 166 168 169 171 182 191 183 184 187 189 192 191 192 185 189 189 180 172 151 163 159 165 170 166 174 179 184 193 189
258 269 279 278 279 284 284 284 283 276 267 262 258 259 256 245 237 231 227 231 214 218 220 221 211 203 200 198 196 196 192 189 190 188 185 191 190 190 182 173 183 182 179 181 187 195 197 191 200 206 194 174 150 166 169 166 168 170 171 170 174 178 181 182 183 185 190 192 187 176 192 197 188 145 155 157 164 170 170 168 181 184 186 191 189
270 264 270 276 277 276 281 274 269 267 264 260 262 256 247 243 238 235 229 225 226 209 209 219 219 208 203 199 199 198 194 190 189 189 188 191 185 176 157 172 185 190 180 178 191 194 193 199 200 203 191 179 150 159 172 167 170 172 174 170 172 177 181 180 182 180 185 193 185 180 183 169 133 147 156 158 166 174 181 175 182 189 190 190 184
274 272 269 270 273 279 278 278 275 274 275 279 276 270 256 245 238 235 234 226 220 215 210 208 219 211 208 210 207 208 206 198 194 188 183 185 180 167 171 178 182 184 177 184 188 195 199 201 196 196 188 188 160 157 170 171 171 174 178 174 171 178 178 177 183 178 186 186 180 181 179 130 150 150 156 161 165 184 212 187 187 196 199 175 166
270 265 264 265 273 274 274 276 271 270 269 262 265 258 254 254 250 244 241 235 228 219 213 212 208 209 210 210 211 205 202 201 192 182 168 165 158 169 179 182 186 185 167 178 183 193 197 198 196 194 188 191 158 160 160 178 174 176 181 178 168 177 177 176 179 183 180 178 187 177 162 140 142 153 160 164 168 180 200 234 178 106 102 123 168
259 259 258 259 263 271 278 278 279 276 269 260 266 269 257 250 249 257 266 259 240 222 212 211 209 207 206 207 205 200 191 193 174 171 166 160 169 179 183 184 185 182 168 165 175 187 194 193 195 185 187 193 171 158 157 170 179 180 184 182 174 170 164 164 178 176 178 180 179 160 132 144 151 164 162 167 169 180 193 146 112 125 110 111 173
262 265 264 260 270 275 275 275 269 264 256 258 266 269 265 245 243 249 270 281 265 232 214 209 207 207 203 202 201 197 182 173 156 154 163 162 174 182 185 182 180 174 165 168 178 186 182 173 183 186 183 186 147 154 162 167 175 185 191 185 175 160 155 171 167 170 179 177 170 171 150 155 155 161 164 165 175 179 183 135 134 124 137 150 190
255 258 263 265 265 269 273 277 273 266 248 239 243 256 234 219 230 228 210 235 272 268 226 211 207 204 200 199 197 185 174 176 154 154 165 177 182 187 183 173 182 177 178 176 174 173 180 181 182 185 184 183 145 150 155 171 171 181 191 196 175 156 154 148 160 169 165 179 153 125 145 153 156 160 163 165 171 183 184 135 140 149 159 176 198
268 273 280 290 292 287 278 271 265 262 257 250 249 250 229 226 231 221 214 210 233 258 250 220 211 205 200 195 185 179 177 177 157 165 171 183 188 187 182 178 175 191 187 183 182 181 185 188 190 184 176 187 172 137 152 162 173 180 184 190 167 176 153 159 155 140 136 111 125 139 149 151 152 154 151 157 166 176 189 149 152 159 194 200 204
306 309 314 295 278 269 266 267 266 260 250 247 250 247 249 240 214 217 216 227 224 245 257 244 213 204 194 186 181 181 180 173 162 159 172 185 184 178 173 175 189 189 183 178 171 181 188 188 189 176 182 173 167 142 138 139 157 161 175 175 170 181 153 129 105 108 108 118 128 138 152 157 155 160 157 155 157 156 160 155 179 190 209 214 210
284 273 279 289 280 263 260 267 276 265 255 241 238 256 250 217 273 233 241 248 255 246 244 237 214 199 193 185 190 171 171 172 173 179 186 185 169 163 171 181 188 186 185 174 176 185 188 183 181 182 159 137 143 140 155 164 171 165 162 161 164 169 169 161 142 134 125 127 128 125 133 136 134 147 155 165 171 171 176 183 193 198 208 217 223
273 282 289 284 283 283 278 267 277 287 270 250 235 227 246 134 199 255 242 233 286 290 283 251 227 202 197 189 185 165 176 173 177 183 186 176 168 175 182 182 184 188 188 186 186 185 186 188 187 185 175 167 173 180 187 179 171 169 166 164 169 176 173 168 150 134 127 122 125 137 141 149 161 167 172 176 180 182 186 189 197 200 201 205 210
305 298 296 317 322 298 289 282 272 273 266 252 246 218 342 114 168 216 200 224 231 251 256 269 285 248 211 197 185 167 171 173 178 179 176 146 79 174 190 191 185 184 172 169 172 180 180 176 180 184 178 175 184 189 162 168 174 175 175 174 173 166 161 157 145 143 141 144 152 158 166 168 170 177 178 183 185 189 190 192 195 203 206 205 208
327 321 319 327 345 328 332 331 327 328 307 296 297 349 42 73 164 189 194 195 179 238 250 244 219 258 246 195 185 176 177 173 173 166 162 149 134 50 41 41 7 176 170 175 184 183 176 184 186 190 185 191 180 154 161 172 170 176 177 174 165 161 161 158 157 151 160 161 170 171 173 176 174 179 182 186 187 189 192 193 195 195 207 211 210